Time,TemperatureF,DewpointF,PressureIn,WindDirection,WindDirectionDegrees,WindSpeedMPH,WindSpeedGustMPH,Humidity,HourlyPrecipIn,Conditions,Clouds,dailyrainin,SoftwareType,DateUTC
2013-02-13 00:04:00,46.2,37.7,29.00,ENE,59,0.0,0.0,72,0.00,,---,0.00,VWS V14.01,2013-02-13 08:04:00,
2013-02-13 00:09:00,46.2,38.1,28.97,ENE,59,0.0,0.0,73,0.00,,---,0.00,VWS V14.01,2013-02-13 08:09:00,
2013-02-13 00:14:00,46.6,38.0,28.97,ENE,59,0.0,0.0,72,0.00,,---,0.00,VWS V14.01,2013-02-13 08:14:00,
2013-02-13 00:19:00,46.4,37.5,28.97,ENE,59,0.0,0.0,71,0.00,,---,0.00,VWS V14.01,2013-02-13 08:19:00,
2013-02-13 00:24:00,46.2,37.0,28.94,ENE,59,0.0,0.0,70,0.00,,---,0.00,VWS V14.01,2013-02-13 08:24:00,
2013-02-13 00:29:00,46.2,37.0,28.94,ENE,59,0.0,0.0,70,0.00,,---,0.00,VWS V14.01,2013-02-13 08:29:00,
2013-02-13 00:34:00,46.0,36.1,28.94,ENE,59,0.0,0.0,68,0.00,,---,0.00,VWS V14.01,2013-02-13 08:34:00,
2013-02-13 00:39:00,46.0,36.1,28.97,ENE,59,0.0,0.0,68,0.00,,---,0.00,VWS V14.01,2013-02-13 08:39:00,
2013-02-13 00:44:00,46.0,35.3,28.97,ENE,59,0.0,0.0,66,0.00,,---,0.00,VWS V14.01,2013-02-13 08:44:00,
2013-02-13 00:49:00,45.9,34.0,28.97,ENE,59,0.0,0.0,63,0.00,,---,0.00,VWS V14.01,2013-02-13 08:49:00,
2013-02-13 00:54:00,45.7,32.6,28.97,ENE,59,0.0,0.0,60,0.00,,---,0.00,VWS V14.01,2013-02-13 08:54:00,
2013-02-13 00:59:00,45.7,32.2,28.97,ENE,58,0.0,0.0,59,0.00,,---,0.00,VWS V14.01,2013-02-13 08:59:00,
2013-02-13 01:04:00,45.5,32.0,28.97,ENE,59,0.0,0.0,59,0.00,,---,0.00,VWS V14.01,2013-02-13 09:04:00,
2013-02-13 01:09:00,45.5,32.0,28.94,ENE,58,0.0,0.0,59,0.00,,---,0.00,VWS V14.01,2013-02-13 09:09:00,
2013-02-13 01:14:00,45.3,31.9,28.94,ENE,59,0.0,0.0,59,0.00,,---,0.00,VWS V14.01,2013-02-13 09:14:00,
2013-02-13 01:19:00,45.3,31.4,28.94,ENE,69,0.0,0.0,58,0.00,,---,0.00,VWS V14.01,2013-02-13 09:19:00,
2013-02-13 01:24:00,45.3,28.8,28.94,NE,54,0.0,0.0,52,0.00,,---,0.00,VWS V14.01,2013-02-13 09:24:00,
2013-02-13 01:29:00,45.7,28.1,28.94,ENE,60,0.0,0.0,50,0.00,,---,0.00,VWS V14.01,2013-02-13 09:29:00,
2013-02-13 01:34:00,45.9,27.3,28.94,ENE,69,3.6,3.6,48,0.00,,---,0.00,VWS V14.01,2013-02-13 09:34:00,
2013-02-13 01:39:00,46.0,27.5,28.97,ENE,59,2.7,2.7,48,0.00,,---,0.00,VWS V14.01,2013-02-13 09:39:00,
2013-02-13 01:44:00,45.9,27.3,28.97,ENE,73,0.0,0.0,48,0.00,,---,0.00,VWS V14.01,2013-02-13 09:44:00,
2013-02-13 01:49:00,45.9,27.3,28.97,ENE,67,0.0,0.0,48,0.00,,---,0.00,VWS V14.01,2013-02-13 09:49:00,
2013-02-13 01:54:00,45.7,27.1,28.94,ENE,63,0.0,0.0,48,0.00,,---,0.00,VWS V14.01,2013-02-13 09:54:00,
2013-02-13 01:59:00,45.7,26.6,28.94,ENE,63,0.0,0.0,47,0.00,,---,0.00,VWS V14.01,2013-02-13 09:59:00,
2013-02-13 02:04:00,45.5,27.0,28.94,ENE,63,0.0,0.0,48,0.00,,---,0.04,VWS V14.01,2013-02-13 10:04:00,
2013-02-13 02:09:00,45.3,26.8,28.94,ENE,63,0.0,0.0,48,0.00,,---,0.00,VWS V14.01,2013-02-13 10:09:00,
2013-02-13 02:14:00,45.1,26.6,28.94,ENE,63,0.0,0.0,48,0.00,,---,0.00,VWS V14.01,2013-02-13 10:14:00,
2013-02-13 02:19:00,44.8,26.8,28.94,ENE,64,0.0,0.0,49,0.00,,---,0.00,VWS V14.01,2013-02-13 10:19:00,
2013-02-13 02:24:00,44.4,27.0,28.94,ENE,63,0.0,0.0,50,0.00,,---,0.00,VWS V14.01,2013-02-13 10:24:00,
2013-02-13 02:29:00,44.2,27.3,28.94,ENE,64,0.0,0.0,51,0.00,,---,0.00,VWS V14.01,2013-02-13 10:29:00,
2013-02-13 02:34:00,44.2,26.8,28.94,ENE,63,0.0,0.0,50,0.00,,---,0.00,VWS V14.01,2013-02-13 10:34:00,
2013-02-13 02:39:00,44.2,27.3,28.94,ENE,63,0.0,0.0,51,0.00,,---,0.00,VWS V14.01,2013-02-13 10:39:00,
2013-02-13 02:44:00,44.1,27.1,28.94,ENE,63,0.0,0.0,51,0.00,,---,0.00,VWS V14.01,2013-02-13 10:44:00,
2013-02-13 02:49:00,43.7,26.8,28.94,ENE,64,0.0,0.0,51,0.00,,---,0.00,VWS V14.01,2013-02-13 10:49:00,
2013-02-13 02:54:00,43.5,26.6,28.94,ENE,64,0.0,0.0,51,0.00,,---,0.00,VWS V14.01,2013-02-13 10:54:00,
2013-02-13 02:59:00,43.3,26.9,28.94,ENE,64,0.0,0.0,52,0.00,,---,0.00,VWS V14.01,2013-02-13 10:59:00,
2013-02-13 03:04:00,43.0,27.5,28.94,ENE,64,0.0,0.0,54,0.00,,---,0.00,VWS V14.01,2013-02-13 11:04:00,
2013-02-13 03:09:00,43.2,27.7,28.91,ENE,64,0.0,0.0,54,0.00,,---,0.00,VWS V14.01,2013-02-13 11:09:00,
2013-02-13 03:14:00,43.0,27.5,28.91,ENE,64,0.0,0.0,54,0.00,,---,0.00,VWS V14.01,2013-02-13 11:14:00,
2013-02-13 03:19:00,42.8,27.3,28.91,ENE,63,0.0,0.0,54,0.00,,---,0.00,VWS V14.01,2013-02-13 11:19:00,
2013-02-13 03:24:00,42.8,27.3,28.94,ENE,63,0.0,0.0,54,0.00,,---,0.00,VWS V14.01,2013-02-13 11:24:00,
2013-02-13 03:29:00,42.4,27.0,28.94,ENE,64,0.0,0.0,54,0.00,,---,0.00,VWS V14.01,2013-02-13 11:29:00,
2013-02-13 03:34:00,42.6,27.1,28.94,ENE,64,0.0,0.0,54,0.00,,---,0.00,VWS V14.01,2013-02-13 11:34:00,
2013-02-13 03:39:00,42.6,27.1,28.91,ENE,63,0.0,0.0,54,0.00,,---,0.00,VWS V14.01,2013-02-13 11:39:00,
2013-02-13 03:44:00,42.4,27.0,28.91,ENE,64,0.0,0.0,54,0.00,,---,0.00,VWS V14.01,2013-02-13 11:44:00,
2013-02-13 03:49:00,42.4,27.0,28.91,ENE,64,0.0,0.0,54,0.00,,---,0.00,VWS V14.01,2013-02-13 11:49:00,
2013-02-13 03:54:00,42.4,26.5,28.91,ENE,64,0.0,0.0,53,0.00,,---,0.00,VWS V14.01,2013-02-13 11:54:00,
2013-02-13 03:59:00,42.4,26.1,28.91,ENE,63,0.0,0.0,52,0.00,,---,0.00,VWS V14.01,2013-02-13 11:59:00,
2013-02-13 06:10:00,43.0,21.5,28.88,ENE,58,0.0,0.0,42,0.00,,---,0.00,VWS V14.01,2013-02-13 14:10:00,
2013-02-13 06:15:00,42.8,21.3,28.88,ENE,57,0.0,0.0,42,0.00,,---,0.00,VWS V14.01,2013-02-13 14:15:00,
2013-02-13 06:20:00,42.6,21.7,28.88,ENE,57,0.0,0.0,43,0.00,,---,0.00,VWS V14.01,2013-02-13 14:20:00,
2013-02-13 06:25:00,42.6,21.7,28.91,ENE,57,0.0,0.0,43,0.00,,---,0.00,VWS V14.01,2013-02-13 14:25:00,
2013-02-13 06:30:00,42.6,21.7,28.91,ENE,57,0.0,0.0,43,0.00,,---,0.00,VWS V14.01,2013-02-13 14:30:00,
2013-02-13 06:35:00,42.6,22.2,28.91,ENE,57,0.0,0.0,44,0.00,,---,0.00,VWS V14.01,2013-02-13 14:35:00,
2013-02-13 06:40:00,42.4,22.1,28.88,ENE,58,0.0,0.0,44,0.00,,---,0.00,VWS V14.01,2013-02-13 14:40:00,
2013-02-13 06:45:00,42.4,22.6,28.88,ENE,57,0.0,0.0,45,0.00,,---,0.00,VWS V14.01,2013-02-13 14:45:00,
2013-02-13 06:50:00,42.4,22.1,28.88,ENE,58,0.0,0.0,44,0.00,,---,0.00,VWS V14.01,2013-02-13 14:50:00,
2013-02-13 06:55:00,42.8,21.3,28.88,ENE,58,0.0,0.0,42,0.00,,---,0.00,VWS V14.01,2013-02-13 14:55:00,
2013-02-13 07:00:00,42.8,21.3,28.88,ENE,57,0.0,0.0,42,0.00,,---,0.00,VWS V14.01,2013-02-13 15:00:00,
2013-02-13 07:05:00,43.2,21.6,28.88,ENE,58,0.0,0.0,42,0.00,,---,0.00,VWS V14.01,2013-02-13 15:05:00,
2013-02-13 07:10:00,43.5,21.4,28.88,ENE,60,0.0,0.0,41,0.00,,---,0.00,VWS V14.01,2013-02-13 15:10:00,
2013-02-13 07:15:00,43.9,21.7,28.88,ENE,59,0.0,0.0,41,0.00,,---,0.00,VWS V14.01,2013-02-13 15:15:00,
2013-02-13 07:20:00,44.2,21.5,28.88,NE,46,0.0,0.0,40,0.00,,---,0.00,VWS V14.01,2013-02-13 15:20:00,
2013-02-13 07:25:00,44.8,21.4,28.91,NE,45,0.0,0.0,39,0.00,,---,0.00,VWS V14.01,2013-02-13 15:25:00,
2013-02-13 07:30:00,45.3,22.4,28.91,NE,46,0.0,0.0,40,0.00,,---,0.00,VWS V14.01,2013-02-13 15:30:00,
2013-02-13 07:35:00,45.9,22.9,28.91,NE,47,0.0,0.0,40,0.00,,---,0.00,VWS V14.01,2013-02-13 15:35:00,
2013-02-13 07:40:00,46.4,22.8,28.94,NE,39,0.0,0.0,39,0.00,,---,0.00,VWS V14.01,2013-02-13 15:40:00,
2013-02-13 07:45:00,46.9,22.7,28.94,NE,40,0.0,0.0,38,0.00,,---,0.00,VWS V14.01,2013-02-13 15:45:00,
2013-02-13 07:50:00,47.5,22.5,28.94,NE,43,0.0,0.0,37,0.00,,---,0.00,VWS V14.01,2013-02-13 15:50:00,
2013-02-13 07:55:00,48.2,23.2,28.97,NNE,25,0.0,0.0,37,0.00,,---,0.00,VWS V14.01,2013-02-13 15:55:00,
2013-02-13 08:00:00,49.1,24.0,28.97,NNE,25,0.0,0.0,37,0.00,,---,0.00,VWS V14.01,2013-02-13 16:00:00,
2013-02-13 08:05:00,50.2,24.3,28.97,NE,48,3.1,3.1,36,0.00,,---,0.00,VWS V14.01,2013-02-13 16:05:00,
2013-02-13 08:10:00,50.9,22.8,28.97,NE,50,0.0,0.0,33,0.00,,---,0.00,VWS V14.01,2013-02-13 16:10:00,
2013-02-13 08:15:00,51.6,23.5,28.97,NE,52,0.0,0.0,33,0.00,,---,0.00,VWS V14.01,2013-02-13 16:15:00,
2013-02-13 08:20:00,52.3,23.4,28.97,NE,40,0.0,0.0,32,0.00,,---,0.00,VWS V14.01,2013-02-13 16:20:00,
2013-02-13 08:25:00,52.9,23.1,28.97,North,8,0.0,0.0,31,0.00,,---,0.00,VWS V14.01,2013-02-13 16:25:00,
2013-02-13 08:30:00,53.2,22.6,28.97,North,6,0.0,0.0,30,0.00,,---,0.00,VWS V14.01,2013-02-13 16:30:00,
2013-02-13 08:35:00,53.8,23.1,28.97,North,9,0.0,0.0,30,0.00,,---,0.00,VWS V14.01,2013-02-13 16:35:00,
2013-02-13 08:40:00,54.5,23.7,28.97,North,10,0.0,0.0,30,0.00,,---,0.00,VWS V14.01,2013-02-13 16:40:00,
2013-02-13 08:45:00,55.2,23.5,28.97,NE,54,0.0,0.0,29,0.00,,---,0.00,VWS V14.01,2013-02-13 16:45:00,
2013-02-13 08:50:00,55.4,22.9,28.97,ENE,59,0.0,0.0,28,0.00,,---,0.00,VWS V14.01,2013-02-13 16:50:00,
2013-02-13 08:55:00,55.8,24.0,29.00,ENE,57,0.0,0.0,29,0.00,,---,0.00,VWS V14.01,2013-02-13 16:55:00,
2013-02-13 09:00:00,56.1,24.3,29.00,West,281,0.0,0.0,29,0.00,,---,0.00,VWS V14.01,2013-02-13 17:00:00,
2013-02-13 09:05:00,56.5,23.8,29.00,WNW,291,0.0,0.0,28,0.00,,---,0.00,VWS V14.01,2013-02-13 17:05:00,
2013-02-13 09:10:00,56.7,24.8,29.03,SW,236,0.0,0.0,29,0.00,,---,0.00,VWS V14.01,2013-02-13 17:10:00,
2013-02-13 09:15:00,56.8,24.9,29.03,WSW,242,0.0,2.7,29,0.00,,---,0.00,VWS V14.01,2013-02-13 17:15:00,
2013-02-13 09:20:00,57.0,25.1,29.03,SW,229,2.2,2.2,29,0.00,,---,0.00,VWS V14.01,2013-02-13 17:20:00,
2013-02-13 09:25:00,57.0,25.1,29.06,SW,233,0.0,0.0,29,0.00,,---,0.00,VWS V14.01,2013-02-13 17:25:00,
2013-02-13 09:30:00,57.2,25.2,29.06,WSW,239,0.0,0.0,29,0.00,,---,0.00,VWS V14.01,2013-02-13 17:30:00,
2013-02-13 09:35:00,57.2,25.2,29.06,SSW,210,2.7,2.7,29,0.00,,---,0.00,VWS V14.01,2013-02-13 17:35:00,
2013-02-13 09:40:00,57.6,24.7,29.09,WNW,297,2.2,3.1,28,0.00,,---,0.00,VWS V14.01,2013-02-13 17:40:00,
2013-02-13 09:45:00,57.6,24.7,29.09,NW,319,0.0,3.1,28,0.00,,---,0.00,VWS V14.01,2013-02-13 17:45:00,
2013-02-13 09:50:00,57.7,24.9,29.09,WSW,250,0.0,0.0,28,0.00,,---,0.00,VWS V14.01,2013-02-13 17:50:00,
2013-02-13 09:55:00,57.9,25.0,29.15,SW,225,0.0,0.0,28,0.00,,---,0.00,VWS V14.01,2013-02-13 17:55:00,
2013-02-13 10:00:00,57.9,25.0,29.15,SW,220,0.0,0.0,28,0.00,,---,0.00,VWS V14.01,2013-02-13 18:00:00,
2013-02-13 10:05:00,58.1,25.2,29.15,West,275,3.6,4.0,28,0.00,,---,0.00,VWS V14.01,2013-02-13 18:05:00,
2013-02-13 10:10:00,58.3,24.5,29.15,West,278,3.6,5.4,27,0.00,,---,0.00,VWS V14.01,2013-02-13 18:10:00,
2013-02-13 10:14:00,58.3,24.5,29.15,West,259,4.0,4.0,27,0.00,,---,0.00,VWS V14.01,2013-02-13 18:14:00,
2013-02-13 10:19:00,58.5,24.6,29.15,West,259,3.1,3.6,27,0.00,,---,0.00,VWS V14.01,2013-02-13 18:19:00,
2013-02-13 10:24:00,58.5,24.6,29.15,WSW,253,2.7,3.6,27,0.00,,---,0.00,VWS V14.01,2013-02-13 18:24:00,
2013-02-13 10:29:00,58.6,24.8,29.15,West,269,0.0,0.0,27,0.00,,---,0.00,VWS V14.01,2013-02-13 18:29:00,
2013-02-13 10:35:00,58.8,24.9,29.15,West,265,4.0,6.3,27,0.00,,---,0.00,VWS V14.01,2013-02-13 18:35:00,
2013-02-13 10:40:00,59.2,25.2,29.18,West,275,0.0,3.1,27,0.00,,---,0.00,VWS V14.01,2013-02-13 18:40:00,
2013-02-13 10:45:00,59.4,25.4,29.18,WSW,253,3.1,3.1,27,0.00,,---,0.00,VWS V14.01,2013-02-13 18:45:00,
2013-02-13 10:50:00,59.5,24.6,29.18,WSW,241,2.7,3.6,26,0.00,,---,0.00,VWS V14.01,2013-02-13 18:50:00,
2013-02-13 10:55:00,59.9,25.9,29.18,NW,313,0.0,2.7,27,0.00,,---,0.00,VWS V14.01,2013-02-13 18:55:00,
2013-02-13 11:00:00,60.3,26.2,29.18,West,266,2.7,5.4,27,0.00,,---,0.00,VWS V14.01,2013-02-13 19:00:00,
2013-02-13 11:05:00,60.3,26.2,29.18,WSW,252,3.6,5.4,27,0.00,,---,0.00,VWS V14.01,2013-02-13 19:05:00,
2013-02-13 11:10:00,60.3,26.2,29.18,West,262,3.6,4.9,27,0.00,,---,0.00,VWS V14.01,2013-02-13 19:10:00,
2013-02-13 11:15:00,60.3,26.2,29.18,South,179,2.2,5.4,27,0.00,,---,0.00,VWS V14.01,2013-02-13 19:15:00,
2013-02-13 11:20:00,60.4,26.3,29.18,WNW,293,3.6,3.6,27,0.00,,---,0.00,VWS V14.01,2013-02-13 19:20:00,
2013-02-13 11:25:00,60.4,26.3,29.21,West,260,4.0,5.4,27,0.00,,---,0.00,VWS V14.01,2013-02-13 19:25:00,
2013-02-13 11:30:00,60.4,26.3,29.21,SW,235,2.7,3.1,27,0.00,,---,0.00,VWS V14.01,2013-02-13 19:30:00,
2013-02-13 11:35:00,60.4,26.3,29.21,NNW,332,5.8,8.7,27,0.00,,---,0.00,VWS V14.01,2013-02-13 19:35:00,
2013-02-13 11:40:00,60.3,26.2,29.18,SW,223,2.7,4.0,27,0.00,,---,0.00,VWS V14.01,2013-02-13 19:40:00,
2013-02-13 11:45:00,60.4,27.2,29.18,West,280,4.0,4.0,28,0.00,,---,0.00,VWS V14.01,2013-02-13 19:45:00,
2013-02-13 11:50:00,60.6,28.2,29.18,West,277,0.0,0.0,29,0.00,,---,0.00,VWS V14.01,2013-02-13 19:50:00,
2013-02-13 11:55:00,60.8,28.4,29.21,West,260,3.6,3.6,29,0.00,,---,0.00,VWS V14.01,2013-02-13 19:55:00,
2013-02-13 12:00:00,60.8,26.6,29.21,West,263,5.4,5.4,27,0.00,,---,0.00,VWS V14.01,2013-02-13 20:00:00,
2013-02-13 12:05:00,60.4,27.2,29.21,West,267,3.6,5.8,28,0.00,,---,0.00,VWS V14.01,2013-02-13 20:05:00,
2013-02-13 12:10:00,60.3,26.2,29.21,WNW,303,5.4,5.4,27,0.00,,---,0.00,VWS V14.01,2013-02-13 20:10:00,
2013-02-13 12:15:00,60.3,25.3,29.21,WNW,296,4.0,5.8,26,0.00,,---,0.00,VWS V14.01,2013-02-13 20:15:00,
2013-02-13 12:20:00,60.4,25.4,29.21,West,265,5.8,6.7,26,0.00,,---,0.00,VWS V14.01,2013-02-13 20:20:00,
2013-02-13 12:25:00,60.4,25.4,29.21,WSW,238,4.9,5.8,26,0.00,,---,0.00,VWS V14.01,2013-02-13 20:25:00,
2013-02-13 12:30:00,60.6,26.5,29.21,WSW,248,2.2,4.9,27,0.00,,---,0.00,VWS V14.01,2013-02-13 20:30:00,
2013-02-13 12:35:00,61.0,26.8,29.21,WNW,301,4.0,4.0,27,0.00,,---,0.00,VWS V14.01,2013-02-13 20:35:00,
2013-02-13 12:40:00,61.0,26.8,29.21,West,259,4.0,6.3,27,0.00,,---,0.00,VWS V14.01,2013-02-13 20:40:00,
2013-02-13 12:45:00,60.4,26.3,29.21,NW,308,5.4,8.7,27,0.00,,---,0.00,VWS V14.01,2013-02-13 20:45:00,
2013-02-13 12:50:00,60.4,26.3,29.21,WSW,248,3.1,5.4,27,0.00,,---,0.00,VWS V14.01,2013-02-13 20:50:00,
2013-02-13 12:55:00,60.4,27.2,29.21,WSW,244,8.7,8.7,28,0.00,,---,0.00,VWS V14.01,2013-02-13 20:55:00,
2013-02-13 13:00:00,60.3,27.9,29.21,WNW,300,2.7,5.4,29,0.00,,---,0.00,VWS V14.01,2013-02-13 21:00:00,
2013-02-13 13:05:00,60.6,29.8,29.21,West,270,8.1,8.1,31,0.00,,---,0.00,VWS V14.01,2013-02-13 21:05:00,
2013-02-13 13:10:00,60.8,31.5,29.21,South,178,3.6,4.9,33,0.00,,---,0.00,VWS V14.01,2013-02-13 21:10:00,
2013-02-13 13:15:00,60.6,32.8,29.21,SW,221,4.9,7.6,35,0.00,,---,0.00,VWS V14.01,2013-02-13 21:15:00,
2013-02-13 13:20:00,60.4,33.4,29.21,SW,231,3.1,4.0,36,0.00,,---,0.00,VWS V14.01,2013-02-13 21:20:00,
2013-02-13 13:25:00,61.0,34.5,29.18,West,265,4.5,4.5,37,0.00,,---,0.00,VWS V14.01,2013-02-13 21:25:00,
2013-02-13 13:30:00,61.0,34.5,29.18,SW,223,5.8,5.8,37,0.00,,---,0.00,VWS V14.01,2013-02-13 21:30:00,
2013-02-13 13:35:00,60.8,33.7,29.18,WSW,253,3.1,4.0,36,0.00,,---,0.00,VWS V14.01,2013-02-13 21:35:00,
2013-02-13 13:40:00,61.0,32.4,29.21,NW,325,4.9,5.4,34,0.00,,---,0.00,VWS V14.01,2013-02-13 21:40:00,
2013-02-13 13:45:00,65.5,34.1,29.21,SW,233,2.7,2.7,31,0.00,,---,0.00,VWS V14.01,2013-02-13 21:45:00,
2013-02-13 13:50:00,63.5,33.9,29.21,West,261,4.0,5.4,33,0.00,,---,0.00,VWS V14.01,2013-02-13 21:50:00,
2013-02-13 13:55:00,61.9,33.2,29.18,West,281,5.8,6.3,34,0.00,,---,0.00,VWS V14.01,2013-02-13 21:55:00,
2013-02-13 14:00:00,61.2,33.3,29.18,West,259,3.6,5.4,35,0.00,,---,0.00,VWS V14.01,2013-02-13 22:00:00,
2013-02-13 14:05:00,61.0,33.9,29.18,NE,46,5.4,5.8,36,0.00,,---,0.00,VWS V14.01,2013-02-13 22:05:00,
2013-02-13 14:10:00,61.0,33.9,29.18,WNW,287,4.9,8.1,36,0.00,,---,0.00,VWS V14.01,2013-02-13 22:10:00,
2013-02-13 14:15:00,60.8,33.0,29.18,WNW,301,5.8,5.8,35,0.00,,---,0.00,VWS V14.01,2013-02-13 22:15:00,
2013-02-13 14:20:00,60.6,33.5,29.18,NNW,341,3.1,5.8,36,0.00,,---,0.00,VWS V14.01,2013-02-13 22:20:00,
2013-02-13 14:24:00,60.6,34.2,29.18,WSW,243,3.1,3.1,37,0.00,,---,0.00,VWS V14.01,2013-02-13 22:24:00,
2013-02-13 14:29:00,60.8,33.7,29.18,South,190,2.2,3.6,36,0.00,,---,0.00,VWS V14.01,2013-02-13 22:29:00,
2013-02-13 14:34:00,60.8,34.4,29.18,SW,220,4.9,4.9,37,0.00,,---,0.00,VWS V14.01,2013-02-13 22:34:00,
2013-02-13 14:39:00,61.0,34.5,29.18,West,267,4.0,5.4,37,0.00,,---,0.00,VWS V14.01,2013-02-13 22:39:00,
2013-02-13 14:44:00,60.6,34.9,29.18,West,265,3.1,3.1,38,0.00,,---,0.00,VWS V14.01,2013-02-13 22:44:00,
2013-02-13 14:49:00,60.6,34.9,29.18,WSW,255,4.0,5.4,38,0.00,,---,0.00,VWS V14.01,2013-02-13 22:49:00,
2013-02-13 14:54:00,60.8,34.4,29.18,NNW,333,2.7,2.7,37,0.00,,---,0.00,VWS V14.01,2013-02-13 22:54:00,
2013-02-13 14:59:00,61.0,35.9,29.18,SW,229,5.8,5.8,39,0.00,,---,0.00,VWS V14.01,2013-02-13 22:59:00,
2013-02-13 15:04:00,61.2,36.0,29.18,NW,317,3.6,5.8,39,0.00,,---,0.00,VWS V14.01,2013-02-13 23:04:00,
2013-02-13 15:09:00,61.3,36.2,29.18,WSW,249,3.6,5.4,39,0.00,,---,0.00,VWS V14.01,2013-02-13 23:09:00,
2013-02-13 15:14:00,61.5,36.3,29.18,West,265,3.1,3.1,39,0.00,,---,0.00,VWS V14.01,2013-02-13 23:14:00,
2013-02-13 15:19:00,61.7,35.9,29.18,West,271,3.6,3.6,38,0.00,,---,0.00,VWS V14.01,2013-02-13 23:19:00,
2013-02-13 15:24:00,61.7,35.9,29.18,WSW,242,3.6,3.6,38,0.00,,---,0.00,VWS V14.01,2013-02-13 23:24:00,
2013-02-13 15:29:00,61.3,35.5,29.18,WNW,288,3.6,3.6,38,0.00,,---,0.00,VWS V14.01,2013-02-13 23:29:00,
2013-02-13 15:34:00,61.5,35.7,29.18,West,276,3.1,3.1,38,0.00,,---,0.00,VWS V14.01,2013-02-13 23:34:00,
2013-02-13 15:39:00,61.5,35.7,29.15,West,280,2.2,2.7,38,0.00,,---,0.00,VWS V14.01,2013-02-13 23:39:00,
2013-02-13 15:44:00,61.7,35.9,29.15,NW,320,3.6,3.6,38,0.00,,---,0.00,VWS V14.01,2013-02-13 23:44:00,
2013-02-13 15:49:00,61.7,36.5,29.15,WNW,286,2.7,5.4,39,0.00,,---,0.00,VWS V14.01,2013-02-13 23:49:00,
2013-02-13 15:54:00,61.3,36.2,29.12,West,273,0.0,0.0,39,0.00,,---,0.00,VWS V14.01,2013-02-13 23:54:00,
2013-02-13 15:59:00,61.2,36.7,29.12,WNW,290,3.1,3.6,40,0.00,,---,0.00,VWS V14.01,2013-02-13 23:59:00,
2013-02-13 16:04:00,61.2,36.7,29.12,NNW,332,3.6,3.6,40,0.00,,---,0.00,VWS V14.01,2013-02-14 00:04:00,
2013-02-13 16:09:00,61.0,35.9,29.06,WSW,237,3.6,3.6,39,0.00,,---,0.00,VWS V14.01,2013-02-14 00:09:00,
2013-02-13 16:14:00,60.8,36.3,29.06,NW,318,5.8,6.7,40,0.00,,---,0.00,VWS V14.01,2013-02-14 00:14:00,
2013-02-13 16:19:00,60.8,36.3,29.06,SW,225,3.6,3.6,40,0.00,,---,0.00,VWS V14.01,2013-02-14 00:19:00,
2013-02-13 16:24:00,60.6,36.8,29.00,WSW,247,0.0,2.7,41,0.00,,---,0.00,VWS V14.01,2013-02-14 00:24:00,
2013-02-13 16:29:00,60.4,36.7,29.00,WSW,249,3.1,3.1,41,0.00,,---,0.00,VWS V14.01,2013-02-14 00:29:00,
2013-02-13 16:34:00,60.3,36.5,29.00,WNW,290,4.9,4.9,41,0.00,,---,0.00,VWS V14.01,2013-02-14 00:34:00,
2013-02-13 16:39:00,60.1,36.9,28.97,West,280,2.7,2.7,42,0.00,,---,0.00,VWS V14.01,2013-02-14 00:39:00,
2013-02-13 16:44:00,59.7,37.2,28.97,West,278,5.4,5.4,43,0.00,,---,0.00,VWS V14.01,2013-02-14 00:44:00,
2013-02-13 16:49:00,59.5,36.5,28.97,WNW,292,5.8,5.8,42,0.00,,---,0.00,VWS V14.01,2013-02-14 00:49:00,
2013-02-13 16:54:00,59.4,36.3,28.94,WSW,250,0.0,0.0,42,0.00,,---,0.00,VWS V14.01,2013-02-14 00:54:00,
2013-02-13 16:59:00,58.8,36.4,28.94,West,265,2.7,3.6,43,0.00,,---,0.00,VWS V14.01,2013-02-14 00:59:00,
2013-02-13 17:04:00,58.6,36.8,28.94,WNW,297,2.2,5.4,44,0.00,,---,0.00,VWS V14.01,2013-02-14 01:04:00,
2013-02-13 17:09:00,58.3,37.0,28.91,NNW,346,3.1,3.1,45,0.00,,---,0.00,VWS V14.01,2013-02-14 01:09:00,
2013-02-13 17:14:00,57.9,37.3,28.91,West,271,0.0,0.0,46,0.00,,---,0.00,VWS V14.01,2013-02-14 01:14:00,
2013-02-13 17:19:00,57.6,37.5,28.91,WNW,285,0.0,3.1,47,0.00,,---,0.00,VWS V14.01,2013-02-14 01:19:00,
2013-02-13 17:24:00,57.0,37.5,28.88,WNW,297,0.0,0.0,48,0.00,,---,0.00,VWS V14.01,2013-02-14 01:24:00,
2013-02-13 17:29:00,56.7,38.2,28.88,WNW,297,0.0,0.0,50,0.00,,---,0.00,VWS V14.01,2013-02-14 01:29:00,
2013-02-13 17:34:00,56.3,38.9,28.88,WNW,288,0.0,0.0,52,0.00,,---,0.00,VWS V14.01,2013-02-14 01:34:00,
2013-02-13 17:39:00,55.9,39.1,28.88,NNW,327,0.0,2.7,53,0.00,,---,0.00,VWS V14.01,2013-02-14 01:39:00,
2013-02-13 17:44:00,55.8,38.9,28.88,WNW,287,0.0,0.0,53,0.00,,---,0.00,VWS V14.01,2013-02-14 01:44:00,
2013-02-13 17:49:00,55.4,39.0,28.88,West,272,0.0,0.0,54,0.00,,---,0.00,VWS V14.01,2013-02-14 01:49:00,
2013-02-13 17:54:00,55.2,39.3,28.88,WNW,291,0.0,0.0,55,0.00,,---,0.00,VWS V14.01,2013-02-14 01:54:00,
2013-02-13 17:59:00,54.9,39.0,28.88,WNW,292,0.0,0.0,55,0.00,,---,0.00,VWS V14.01,2013-02-14 01:59:00,
2013-02-13 18:04:00,54.9,39.9,28.88,WSW,258,0.0,0.0,57,0.00,,---,0.00,VWS V14.01,2013-02-14 02:04:00,
2013-02-13 18:09:00,54.7,39.8,28.88,West,259,0.0,0.0,57,0.00,,---,0.00,VWS V14.01,2013-02-14 02:09:00,
2013-02-13 18:14:00,54.5,40.5,28.88,West,260,0.0,0.0,59,0.00,,---,0.00,VWS V14.01,2013-02-14 02:14:00,
2013-02-13 18:19:00,54.1,40.6,28.88,West,259,0.0,0.0,60,0.00,,---,0.00,VWS V14.01,2013-02-14 02:19:00,
2013-02-13 18:24:00,54.0,40.8,28.88,West,264,0.0,0.0,61,0.00,,---,0.00,VWS V14.01,2013-02-14 02:24:00,
2013-02-13 18:29:00,53.8,41.1,28.88,WNW,303,0.0,0.0,62,0.00,,---,0.00,VWS V14.01,2013-02-14 02:29:00,
2013-02-13 18:34:00,53.8,42.7,28.88,North,4,0.0,0.0,66,0.00,,---,0.00,VWS V14.01,2013-02-14 02:34:00,
2013-02-13 18:39:00,53.6,42.1,28.88,NNW,340,0.0,0.0,65,0.00,,---,0.00,VWS V14.01,2013-02-14 02:39:00,
2013-02-13 18:44:00,53.8,43.9,28.88,North,7,0.0,0.0,69,0.00,,---,0.00,VWS V14.01,2013-02-14 02:44:00,
2013-02-13 18:49:00,53.6,43.7,28.88,North,7,0.0,0.0,69,0.00,,---,0.00,VWS V14.01,2013-02-14 02:49:00,
2013-02-13 18:54:00,53.6,43.7,28.88,North,7,0.0,0.0,69,0.00,,---,0.00,VWS V14.01,2013-02-14 02:54:00,
2013-02-13 18:59:00,53.2,43.3,28.88,North,7,0.0,0.0,69,0.00,,---,0.00,VWS V14.01,2013-02-14 02:59:00,
2013-02-13 19:04:00,53.1,43.2,28.88,North,7,0.0,0.0,69,0.00,,---,0.00,VWS V14.01,2013-02-14 03:04:00,
2013-02-13 19:09:00,53.1,42.8,28.88,North,7,0.0,0.0,68,0.00,,---,0.00,VWS V14.01,2013-02-14 03:09:00,
2013-02-13 19:14:00,52.9,43.0,28.88,North,7,0.0,0.0,69,0.00,,---,0.00,VWS V14.01,2013-02-14 03:14:00,
2013-02-13 19:19:00,52.7,42.8,28.88,North,7,0.0,0.0,69,0.00,,---,0.00,VWS V14.01,2013-02-14 03:19:00,
2013-02-13 19:24:00,52.7,42.8,28.88,North,7,0.0,0.0,69,0.00,,---,0.00,VWS V14.01,2013-02-14 03:24:00,
2013-02-13 19:29:00,52.7,42.8,28.88,North,7,0.0,0.0,69,0.00,,---,0.00,VWS V14.01,2013-02-14 03:29:00,
2013-02-13 19:34:00,52.7,43.2,28.88,North,7,0.0,0.0,70,0.00,,---,0.00,VWS V14.01,2013-02-14 03:34:00,
2013-02-13 19:39:00,52.5,43.0,28.88,North,7,0.0,0.0,70,0.00,,---,0.00,VWS V14.01,2013-02-14 03:39:00,
2013-02-13 19:44:00,52.3,42.9,28.88,North,7,0.0,0.0,70,0.00,,---,0.00,VWS V14.01,2013-02-14 03:44:00,
2013-02-13 19:49:00,52.2,43.1,28.88,North,7,0.0,0.0,71,0.00,,---,0.00,VWS V14.01,2013-02-14 03:49:00,
2013-02-13 19:54:00,52.2,43.1,28.88,North,7,0.0,0.0,71,0.00,,---,0.00,VWS V14.01,2013-02-14 03:54:00,
2013-02-13 19:59:00,52.2,43.1,28.88,North,7,0.0,0.0,71,0.00,,---,0.00,VWS V14.01,2013-02-14 03:59:00,
2013-02-13 20:04:00,52.2,43.1,28.88,North,7,0.0,0.0,71,0.00,,---,0.00,VWS V14.01,2013-02-14 04:04:00,
2013-02-13 20:09:00,52.0,42.9,28.88,North,7,0.0,0.0,71,0.00,,---,0.00,VWS V14.01,2013-02-14 04:09:00,
2013-02-13 20:14:00,51.8,43.1,28.88,North,7,0.0,0.0,72,0.00,,---,0.00,VWS V14.01,2013-02-14 04:14:00,
2013-02-13 20:19:00,51.6,42.9,28.88,North,7,0.0,0.0,72,0.00,,---,0.00,VWS V14.01,2013-02-14 04:19:00,
2013-02-13 20:24:00,51.8,43.4,28.88,North,7,0.0,0.0,73,0.00,,---,0.00,VWS V14.01,2013-02-14 04:24:00,
2013-02-13 20:29:00,51.6,43.6,28.88,North,7,0.0,0.0,74,0.00,,---,0.00,VWS V14.01,2013-02-14 04:29:00,
2013-02-13 20:34:00,51.4,43.8,28.88,North,7,0.0,0.0,75,0.00,,---,0.00,VWS V14.01,2013-02-14 04:34:00,
2013-02-13 20:39:00,51.3,43.6,28.85,North,7,0.0,0.0,75,0.00,,---,0.00,VWS V14.01,2013-02-14 04:39:00,
2013-02-13 20:44:00,51.1,43.1,28.85,North,7,0.0,0.0,74,0.00,,---,0.00,VWS V14.01,2013-02-14 04:44:00,
2013-02-13 20:49:00,50.7,42.8,28.85,North,7,0.0,0.0,74,0.00,,---,0.00,VWS V14.01,2013-02-14 04:49:00,
2013-02-13 20:54:00,50.5,42.6,28.85,North,7,0.0,0.0,74,0.00,,---,0.00,VWS V14.01,2013-02-14 04:54:00,
2013-02-13 20:59:00,50.4,42.4,28.85,North,7,0.0,0.0,74,0.00,,---,0.00,VWS V14.01,2013-02-14 04:59:00,
2013-02-13 21:00:00,50.4,42.8,28.85,North,7,0.0,0.0,75,0.00,,---,0.00,VWS V14.01,2013-02-14 05:00:00,
2013-02-13 21:05:00,50.5,42.9,28.85,North,7,0.0,0.0,75,0.00,,---,0.00,VWS V14.01,2013-02-14 05:05:00,
2013-02-13 21:10:00,50.5,43.3,28.88,North,7,0.0,0.0,76,0.00,,---,0.00,VWS V14.01,2013-02-14 05:10:00,
2013-02-13 21:15:00,50.5,43.3,28.88,North,7,0.0,0.0,76,0.00,,---,0.00,VWS V14.01,2013-02-14 05:15:00,
2013-02-13 21:20:00,50.5,43.3,28.88,North,7,0.0,0.0,76,0.00,,---,0.00,VWS V14.01,2013-02-14 05:20:00,
2013-02-13 21:25:00,50.4,43.1,28.88,North,7,0.0,0.0,76,0.00,,---,0.00,VWS V14.01,2013-02-14 05:25:00,
2013-02-13 21:30:00,50.2,42.9,28.88,North,7,0.0,0.0,76,0.00,,---,0.00,VWS V14.01,2013-02-14 05:30:00,
2013-02-13 21:35:00,50.2,42.9,28.88,North,7,0.0,0.0,76,0.00,,---,0.00,VWS V14.01,2013-02-14 05:35:00,
2013-02-13 21:40:00,50.2,42.9,28.88,North,7,0.0,0.0,76,0.00,,---,0.00,VWS V14.01,2013-02-14 05:40:00,
2013-02-13 21:45:00,50.0,43.1,28.88,North,7,0.0,0.0,77,0.00,,---,0.00,VWS V14.01,2013-02-14 05:45:00,
2013-02-13 21:50:00,50.0,43.1,28.88,North,7,0.0,0.0,77,0.00,,---,0.00,VWS V14.01,2013-02-14 05:50:00,
2013-02-13 21:55:00,49.8,42.9,28.88,North,7,0.0,0.0,77,0.00,,---,0.00,VWS V14.01,2013-02-14 05:55:00,
2013-02-13 22:00:00,49.8,42.9,28.88,North,7,0.0,0.0,77,0.00,,---,0.00,VWS V14.01,2013-02-14 06:00:00,
2013-02-13 22:05:00,49.6,43.1,28.88,North,7,0.0,0.0,78,0.00,,---,0.00,VWS V14.01,2013-02-14 06:05:00,
2013-02-13 22:10:00,49.5,42.9,28.88,North,7,0.0,0.0,78,0.00,,---,0.00,VWS V14.01,2013-02-14 06:10:00,
2013-02-13 22:15:00,49.3,42.7,28.88,North,7,0.0,0.0,78,0.00,,---,0.00,VWS V14.01,2013-02-14 06:15:00,
2013-02-13 22:20:00,49.3,43.0,28.88,North,7,0.0,0.0,79,0.00,,---,0.00,VWS V14.01,2013-02-14 06:20:00,
2013-02-13 22:25:00,49.1,42.9,28.85,North,7,0.0,0.0,79,0.00,,---,0.00,VWS V14.01,2013-02-14 06:25:00,
2013-02-13 22:30:00,48.9,42.7,28.85,North,7,0.0,0.0,79,0.00,,---,0.00,VWS V14.01,2013-02-14 06:30:00,
2013-02-13 22:35:00,48.7,42.5,28.85,North,7,0.0,0.0,79,0.00,,---,0.00,VWS V14.01,2013-02-14 06:35:00,
2013-02-13 22:40:00,48.7,42.5,28.88,North,7,0.0,0.0,79,0.00,,---,0.00,VWS V14.01,2013-02-14 06:40:00,
2013-02-13 22:45:00,48.7,42.5,28.88,North,7,0.0,0.0,79,0.00,,---,0.00,VWS V14.01,2013-02-14 06:45:00,
2013-02-13 22:50:00,48.9,43.0,28.88,North,7,0.0,0.0,80,0.00,,---,0.00,VWS V14.01,2013-02-14 06:50:00,
2013-02-13 22:55:00,48.7,42.5,28.88,North,7,0.0,0.0,79,0.00,,---,0.00,VWS V14.01,2013-02-14 06:55:00,
2013-02-13 23:00:00,48.7,42.5,28.88,North,7,0.0,0.0,79,0.00,,---,0.00,VWS V14.01,2013-02-14 07:00:00,
2013-02-13 23:05:00,48.7,42.9,28.88,North,7,0.0,0.0,80,0.00,,---,0.00,VWS V14.01,2013-02-14 07:05:00,
2013-02-13 23:10:00,48.7,42.9,28.88,North,7,0.0,0.0,80,0.00,,---,0.00,VWS V14.01,2013-02-14 07:10:00,
2013-02-13 23:15:00,48.7,42.9,28.88,North,7,0.0,0.0,80,0.00,,---,0.00,VWS V14.01,2013-02-14 07:15:00,
2013-02-13 23:20:00,48.7,43.2,28.88,North,7,0.0,0.0,81,0.00,,---,0.00,VWS V14.01,2013-02-14 07:20:00,
2013-02-13 23:25:00,48.7,43.2,28.85,North,7,0.0,0.0,81,0.00,,---,0.00,VWS V14.01,2013-02-14 07:25:00,
2013-02-13 23:30:00,48.6,43.0,28.85,North,7,0.0,0.0,81,0.00,,---,0.00,VWS V14.01,2013-02-14 07:30:00,
2013-02-13 23:35:00,48.6,43.0,28.85,North,7,0.0,0.0,81,0.00,,---,0.00,VWS V14.01,2013-02-14 07:35:00,
2013-02-13 23:40:00,48.6,43.0,28.85,North,7,0.0,0.0,81,0.00,,---,0.00,VWS V14.01,2013-02-14 07:40:00,
2013-02-13 23:45:00,48.6,43.0,28.85,North,7,0.0,0.0,81,0.00,,---,0.00,VWS V14.01,2013-02-14 07:45:00,
2013-02-13 23:50:00,48.6,43.0,28.85,North,7,0.0,0.0,81,0.00,,---,0.00,VWS V14.01,2013-02-14 07:50:00,
2013-02-13 23:55:00,48.6,43.3,28.88,North,7,0.0,0.0,82,0.00,,---,0.00,VWS V14.01,2013-02-14 07:55:00,